Time,TemperatureF,DewpointF,PressureIn,WindDirection,WindDirectionDegrees,WindSpeedMPH,WindSpeedGustMPH,Humidity,HourlyPrecipIn,Conditions,Clouds,dailyrainin,SoftwareType,DateUTC
2013-04-05 00:00:00,42.6,20.5,29.99,SW,230,8.1,8.1,41,0.00,CLR,,0.00,WeatherDisplay:10.37,2013-04-05 04:00:00,
2013-04-05 00:05:00,42.3,20.2,29.98,SW,218,7.0,7.0,41,0.00,CLR,,0.00,WeatherDisplay:10.37,2013-04-05 04:05:00,
2013-04-05 00:10:00,42.3,20.2,29.98,SW,217,7.0,7.0,41,0.00,CLR,,0.00,WeatherDisplay:10.37,2013-04-05 04:10:00,
2013-04-05 00:15:00,42.2,20.2,29.98,SW,224,7.0,7.0,41,0.00,CLR,,0.00,WeatherDisplay:10.37,2013-04-05 04:15:00,
2013-04-05 00:20:00,41.9,19.9,29.98,SW,223,7.0,7.0,41,0.00,CLR,,0.00,WeatherDisplay:10.37,2013-04-05 04:20:00,
2013-04-05 00:25:00,41.8,20.4,29.98,SW,225,6.0,6.0,42,0.00,CLR,,0.00,WeatherDisplay:10.37,2013-04-05 04:25:00,
2013-04-05 00:30:00,41.6,20.2,29.97,SW,226,7.0,7.0,42,0.00,CLR,,0.00,WeatherDisplay:10.37,2013-04-05 04:30:00,
2013-04-05 00:35:00,41.6,20.2,29.97,SW,224,6.9,6.9,42,0.00,CLR,,0.00,WeatherDisplay:10.37,2013-04-05 04:35:00,
2013-04-05 00:40:00,41.6,20.2,29.98,SW,226,5.0,5.0,42,0.00,CLR,,0.00,WeatherDisplay:10.37,2013-04-05 04:40:00,
2013-04-05 00:46:00,41.5,20.1,29.97,SW,227,5.0,5.0,42,0.00,CLR,,0.00,WeatherDisplay:10.37,2013-04-05 04:46:00,
2013-04-05 00:51:00,41.5,20.1,29.97,SW,228,6.9,6.9,42,0.00,CLR,,0.00,WeatherDisplay:10.37,2013-04-05 04:51:00,
2013-04-05 00:56:00,41.4,20.0,29.97,SW,226,7.0,7.0,42,0.00,CLR,,0.00,WeatherDisplay:10.37,2013-04-05 04:56:00,
2013-04-05 01:01:00,41.3,19.9,29.97,SW,225,6.9,6.9,42,0.00,CLR,,0.00,WeatherDisplay:10.37,2013-04-05 05:01:00,
2013-04-05 01:06:00,41.1,19.7,29.97,SW,226,7.0,7.0,42,0.00,CLR,,0.00,WeatherDisplay:10.37,2013-04-05 05:06:00,
2013-04-05 01:11:00,41.1,19.7,29.97,SW,229,7.0,7.0,42,0.00,CLR,,0.00,WeatherDisplay:10.37,2013-04-05 05:11:00,
2013-04-05 01:16:00,40.9,20.1,29.97,SW,219,8.0,8.0,43,0.00,CLR,,0.00,WeatherDisplay:10.37,2013-04-05 05:16:00,
2013-04-05 01:21:00,41.0,20.2,29.97,SW,222,7.0,7.0,43,0.00,CLR,,0.00,WeatherDisplay:10.37,2013-04-05 05:21:00,
2013-04-05 01:26:00,40.9,20.1,29.96,SW,223,6.0,7.0,43,0.00,CLR,CLR,0.00,WeatherDisplay:10.37,2013-04-05 05:26:00,
2013-04-05 01:31:00,40.9,20.1,29.96,SW,234,6.0,6.0,43,0.00,CLR,,0.00,WeatherDisplay:10.37,2013-04-05 05:31:00,
2013-04-05 01:37:00,41.1,20.3,29.96,SW,234,7.0,7.0,43,0.00,CLR,,0.00,WeatherDisplay:10.37,2013-04-05 05:37:00,
2013-04-05 01:42:00,40.9,20.1,29.96,SW,226,6.0,6.0,43,0.00,CLR,,0.00,WeatherDisplay:10.37,2013-04-05 05:42:00,
2013-04-05 01:47:00,40.8,20.5,29.96,SW,226,7.0,7.0,44,0.00,CLR,,0.00,WeatherDisplay:10.37,2013-04-05 05:47:00,
2013-04-05 01:52:00,40.9,20.1,29.96,SW,219,6.0,6.0,43,0.00,CLR,,0.00,WeatherDisplay:10.37,2013-04-05 05:52:00,
2013-04-05 01:57:00,41.0,20.2,29.95,SW,220,6.0,6.0,43,0.00,CLR,,0.00,WeatherDisplay:10.37,2013-04-05 05:57:00,
2013-04-05 02:02:00,41.0,20.2,29.95,SW,224,6.0,6.0,43,0.00,CLR,,0.00,WeatherDisplay:10.37,2013-04-05 06:02:00,
2013-04-05 02:07:00,40.9,20.1,29.95,SW,230,7.0,7.0,43,0.00,CLR,,0.00,WeatherDisplay:10.37,2013-04-05 06:07:00,
2013-04-05 02:12:00,40.6,20.4,29.95,SW,224,6.9,6.9,44,0.00,CLR,,0.00,WeatherDisplay:10.37,2013-04-05 06:12:00,
2013-04-05 02:17:00,40.4,20.2,29.95,SW,233,6.0,6.0,44,0.00,CLR,,0.00,WeatherDisplay:10.37,2013-04-05 06:17:00,
2013-04-05 02:22:00,40.1,20.4,29.95,SW,234,6.0,6.0,45,0.00,CLR,,0.00,WeatherDisplay:10.37,2013-04-05 06:22:00,
2013-04-05 02:27:00,40.3,20.6,29.95,WSW,238,6.0,6.0,45,0.00,CLR,,0.00,WeatherDisplay:10.37,2013-04-05 06:27:00,
2013-04-05 02:32:00,40.2,20.5,29.95,SW,236,6.0,6.0,45,0.00,CLR,,0.00,WeatherDisplay:10.37,2013-04-05 06:32:00,
2013-04-05 02:37:00,40.1,20.4,29.95,SW,229,5.0,5.0,45,0.00,CLR,,0.00,WeatherDisplay:10.37,2013-04-05 06:37:00,
2013-04-05 02:42:00,40.0,20.3,29.95,SW,229,5.0,5.0,45,0.00,CLR,,0.00,WeatherDisplay:10.37,2013-04-05 06:42:00,
2013-04-05 02:47:00,40.0,20.3,29.94,SW,230,5.0,5.0,45,0.00,CLR,,0.00,WeatherDisplay:10.37,2013-04-05 06:47:00,
2013-04-05 02:52:00,39.8,20.2,29.94,SW,227,6.0,6.0,45,0.00,CLR,,0.00,WeatherDisplay:10.37,2013-04-05 06:52:00,
2013-04-05 02:57:00,39.6,20.5,29.94,SW,223,5.0,5.0,46,0.00,CLR,,0.00,WeatherDisplay:10.37,2013-04-05 06:57:00,
2013-04-05 03:02:00,39.5,20.4,29.94,SW,223,5.0,5.0,46,0.00,CLR,,0.00,WeatherDisplay:10.37,2013-04-05 07:02:00,
2013-04-05 03:07:00,39.3,20.2,29.94,SW,225,5.0,5.0,46,0.00,CLR,,0.00,WeatherDisplay:10.37,2013-04-05 07:07:00,
2013-04-05 03:12:00,39.1,20.0,29.94,SW,225,5.0,5.0,46,0.00,CLR,,0.00,WeatherDisplay:10.37,2013-04-05 07:12:00,
2013-04-05 03:17:00,38.9,19.9,29.94,SW,224,4.0,4.0,46,0.00,CLR,,0.00,WeatherDisplay:10.37,2013-04-05 07:17:00,
2013-04-05 03:22:00,38.8,20.3,29.94,SW,226,4.0,4.0,47,0.00,CLR,,0.00,WeatherDisplay:10.37,2013-04-05 07:22:00,
2013-04-05 03:27:00,38.7,20.2,29.94,SW,227,4.0,4.0,47,0.00,CLR,,0.00,WeatherDisplay:10.37,2013-04-05 07:27:00,
2013-04-05 03:32:00,38.7,20.2,29.94,WSW,237,4.0,4.0,47,0.00,CLR,,0.00,WeatherDisplay:10.37,2013-04-05 07:32:00,
2013-04-05 03:37:00,38.9,20.4,29.93,WSW,256,4.0,4.0,47,0.00,CLR,,0.00,WeatherDisplay:10.37,2013-04-05 07:37:00,
2013-04-05 03:42:00,38.8,21.3,29.93,WSW,240,5.0,5.0,49,0.00,CLR,,0.00,WeatherDisplay:10.37,2013-04-05 07:42:00,
2013-04-05 03:47:00,38.9,20.9,29.93,SW,225,6.0,6.0,48,0.00,CLR,,0.00,WeatherDisplay:10.37,2013-04-05 07:47:00,
2013-04-05 03:52:00,38.9,20.9,29.94,SW,227,5.0,5.0,48,0.00,CLR,,0.00,WeatherDisplay:10.37,2013-04-05 07:52:00,
2013-04-05 03:57:00,38.7,20.7,29.93,SW,234,5.0,5.0,48,0.00,CLR,,0.00,WeatherDisplay:10.37,2013-04-05 07:57:00,
2013-04-05 04:02:00,38.6,20.6,29.93,SW,227,5.0,5.0,48,0.00,CLR,,0.00,WeatherDisplay:10.37,2013-04-05 08:02:00,
2013-04-05 04:07:00,38.4,20.4,29.93,SW,229,6.0,6.0,48,0.00,CLR,,0.00,WeatherDisplay:10.37,2013-04-05 08:07:00,
2013-04-05 04:12:00,38.3,20.3,29.93,SW,235,4.0,4.0,48,0.00,CLR,,0.00,WeatherDisplay:10.37,2013-04-05 08:12:00,
2013-04-05 04:17:00,38.1,20.6,29.93,SW,230,6.0,6.0,49,0.00,CLR,,0.00,WeatherDisplay:10.37,2013-04-05 08:17:00,
2013-04-05 04:22:00,38.1,20.6,29.93,SW,229,5.0,5.0,49,0.00,CLR,,0.00,WeatherDisplay:10.37,2013-04-05 08:22:00,
2013-04-05 04:27:00,37.7,20.2,29.93,SW,219,5.0,5.0,49,0.00,CLR,,0.00,WeatherDisplay:10.37,2013-04-05 08:27:00,
2013-04-05 04:32:00,37.6,20.1,29.93,SW,226,5.0,5.0,49,0.00,CLR,,0.00,WeatherDisplay:10.37,2013-04-05 08:32:00,
2013-04-05 04:37:00,37.7,20.2,29.94,SW,228,5.0,5.0,49,0.00,CLR,,0.00,WeatherDisplay:10.37,2013-04-05 08:37:00,
2013-04-05 04:43:00,37.7,20.2,29.94,SW,230,5.0,5.0,49,0.00,CLR,,0.00,WeatherDisplay:10.37,2013-04-05 08:43:00,
2013-04-05 04:48:00,37.7,20.2,29.94,SW,227,5.0,5.0,49,0.00,CLR,,0.00,WeatherDisplay:10.37,2013-04-05 08:48:00,
2013-04-05 04:53:00,37.4,20.4,29.94,SW,225,5.0,5.0,50,0.00,CLR,,0.00,WeatherDisplay:10.37,2013-04-05 08:53:00,
2013-04-05 04:58:00,37.1,20.2,29.94,SW,227,5.0,5.0,50,0.00,CLR,,0.00,WeatherDisplay:10.37,2013-04-05 08:58:00,
2013-04-05 05:04:00,37.1,20.2,29.94,SW,229,4.6,4.6,50,0.00,CLR,,0.00,WeatherDisplay:10.37,2013-04-05 09:04:00,
2013-04-05 05:09:00,37.0,20.5,29.94,SW,225,4.6,4.6,51,0.00,CLR,,0.00,WeatherDisplay:10.37,2013-04-05 09:09:00,
2013-04-05 05:14:00,36.8,20.3,29.94,SW,222,6.0,6.0,51,0.00,CLR,,0.00,WeatherDisplay:10.37,2013-04-05 09:14:00,
2013-04-05 05:19:00,36.6,20.6,29.94,SW,221,5.0,5.0,52,0.00,CLR,,0.00,WeatherDisplay:10.37,2013-04-05 09:19:00,
2013-04-05 05:24:00,36.5,20.5,29.94,SW,218,6.0,6.0,52,0.00,CLR,,0.00,WeatherDisplay:10.37,2013-04-05 09:24:00,
2013-04-05 05:29:00,36.3,20.8,29.94,SW,224,6.0,6.0,53,0.00,CLR,,0.00,WeatherDisplay:10.37,2013-04-05 09:29:00,
2013-04-05 05:34:00,36.1,20.6,29.94,SW,223,6.9,6.9,53,0.00,CLR,,0.00,WeatherDisplay:10.37,2013-04-05 09:34:00,
2013-04-05 05:39:00,36.2,21.1,29.95,SW,222,6.0,6.0,54,0.00,CLR,,0.00,WeatherDisplay:10.37,2013-04-05 09:39:00,
2013-04-05 05:44:00,36.3,21.2,29.95,SW,225,7.0,7.0,54,0.00,CLR,,0.00,WeatherDisplay:10.37,2013-04-05 09:44:00,
2013-04-05 05:49:00,36.3,21.2,29.95,SW,225,6.0,6.0,54,0.00,CLR,,0.00,WeatherDisplay:10.37,2013-04-05 09:49:00,
2013-04-05 05:54:00,36.1,21.5,29.95,SW,219,6.0,6.0,55,0.00,CLR,,0.00,WeatherDisplay:10.37,2013-04-05 09:54:00,
2013-04-05 06:00:00,36.1,21.5,29.95,SW,223,7.0,7.0,55,0.00,CLR,,0.00,WeatherDisplay:10.37,2013-04-05 10:00:00,
2013-04-05 06:05:00,36.0,21.8,29.95,SW,225,6.0,6.0,56,0.00,CLR,,0.00,WeatherDisplay:10.37,2013-04-05 10:05:00,
2013-04-05 06:10:00,35.9,22.1,29.95,SW,224,7.0,7.0,57,0.00,CLR,,0.00,WeatherDisplay:10.37,2013-04-05 10:10:00,
2013-04-05 06:15:00,35.6,22.3,29.95,SW,221,6.0,6.0,58,0.00,CLR,,0.00,WeatherDisplay:10.37,2013-04-05 10:15:00,
2013-04-05 06:20:00,35.4,22.5,29.95,SW,225,7.0,7.0,59,0.00,CLR,,0.00,WeatherDisplay:10.37,2013-04-05 10:20:00,
2013-04-05 06:25:00,35.3,22.8,29.95,SW,222,7.0,7.0,60,0.00,CLR,,0.00,WeatherDisplay:10.37,2013-04-05 10:25:00,
2013-04-05 06:30:00,35.4,22.9,29.95,SW,226,7.0,7.0,60,0.00,CLR,,0.00,WeatherDisplay:10.37,2013-04-05 10:30:00,
2013-04-05 06:35:00,35.4,22.9,29.95,SW,221,6.0,6.0,60,0.00,CLR,,0.00,WeatherDisplay:10.37,2013-04-05 10:35:00,
2013-04-05 06:40:00,35.3,23.2,29.95,SW,230,6.0,6.0,61,0.00,CLR,,0.00,WeatherDisplay:10.37,2013-04-05 10:40:00,
2013-04-05 06:45:00,35.2,23.5,29.95,SW,227,6.0,6.0,62,0.00,CLR,,0.00,WeatherDisplay:10.37,2013-04-05 10:45:00,
2013-04-05 06:50:00,35.1,23.4,29.95,SW,233,5.8,5.8,62,0.00,CLR,,0.00,WeatherDisplay:10.37,2013-04-05 10:50:00,
2013-04-05 06:55:00,35.1,23.8,29.95,SW,232,6.0,6.0,63,0.00,CLR,,0.00,WeatherDisplay:10.37,2013-04-05 10:55:00,
2013-04-05 07:00:00,35.1,24.1,29.96,WSW,242,6.0,6.0,64,0.00,CLR,,0.00,WeatherDisplay:10.37,2013-04-05 11:00:00,
2013-04-05 07:05:00,35.5,24.1,29.96,SW,232,7.0,7.0,63,0.00,CLR,,0.00,WeatherDisplay:10.37,2013-04-05 11:05:00,
2013-04-05 07:10:00,35.5,24.1,29.96,SW,227,6.0,6.0,63,0.00,CLR,,0.00,WeatherDisplay:10.37,2013-04-05 11:10:00,
2013-04-05 07:15:00,35.4,24.0,29.96,SW,223,7.0,7.0,63,0.00,CLR,,0.00,WeatherDisplay:10.37,2013-04-05 11:15:00,
2013-04-05 07:20:00,35.5,24.5,29.96,SW,223,9.2,9.2,64,0.00,CLR,,0.00,WeatherDisplay:10.37,2013-04-05 11:20:00,
2013-04-05 07:25:00,35.7,24.3,29.96,WSW,244,8.1,8.1,63,0.00,CLR,,0.00,WeatherDisplay:10.37,2013-04-05 11:25:00,
2013-04-05 07:30:00,35.6,24.2,29.96,SW,227,5.0,5.0,63,0.00,CLR,,0.00,WeatherDisplay:10.37,2013-04-05 11:30:00,
2013-04-05 07:35:00,35.5,24.5,29.96,SW,226,5.0,5.0,64,0.00,CLR,,0.00,WeatherDisplay:10.37,2013-04-05 11:35:00,
2013-04-05 07:40:00,35.5,24.5,29.97,SW,226,6.0,6.0,64,0.00,CLR,,0.00,WeatherDisplay:10.37,2013-04-05 11:40:00,
2013-04-05 07:45:00,35.7,24.7,29.97,WSW,251,6.0,6.0,64,0.00,CLR,,0.00,WeatherDisplay:10.37,2013-04-05 11:45:00,
2013-04-05 07:50:00,36.0,24.6,29.97,West,259,6.0,6.0,63,0.00,CLR,,0.00,WeatherDisplay:10.37,2013-04-05 11:50:00,
2013-04-05 07:55:00,36.6,25.2,29.97,WSW,252,8.1,8.1,63,0.00,CLR,,0.00,WeatherDisplay:10.37,2013-04-05 11:55:00,
2013-04-05 08:00:00,36.9,25.1,29.97,West,267,8.1,8.1,62,0.00,CLR,,0.00,WeatherDisplay:10.37,2013-04-05 12:00:00,
2013-04-05 08:05:00,37.2,25.4,29.97,West,260,5.8,5.8,62,0.00,CLR,,0.00,WeatherDisplay:10.37,2013-04-05 12:05:00,
2013-04-05 08:10:00,37.4,27.1,29.97,West,262,5.0,5.0,66,0.00,CLR,,0.00,WeatherDisplay:10.37,2013-04-05 12:10:00,
2013-04-05 08:15:00,37.4,25.6,29.97,West,261,5.0,5.0,62,0.00,CLR,,0.00,WeatherDisplay:10.37,2013-04-05 12:15:00,
2013-04-05 08:20:00,38.1,25.8,29.97,West,275,6.0,6.0,61,0.00,CLR,,0.00,WeatherDisplay:10.37,2013-04-05 12:20:00,
2013-04-05 08:25:00,38.8,26.1,29.97,WSW,253,6.0,6.0,60,0.00,CLR,,0.00,WeatherDisplay:10.37,2013-04-05 12:25:00,
2013-04-05 08:30:00,38.8,26.1,29.97,WSW,257,7.0,7.0,60,0.00,CLR,,0.00,WeatherDisplay:10.37,2013-04-05 12:30:00,
2013-04-05 08:35:00,38.8,26.1,29.98,West,263,6.0,6.0,60,0.00,CLR,,0.00,WeatherDisplay:10.37,2013-04-05 12:35:00,
2013-04-05 08:40:00,39.0,26.3,29.98,WSW,251,7.0,7.0,60,0.00,CLR,,0.00,WeatherDisplay:10.37,2013-04-05 12:40:00,
2013-04-05 08:45:00,39.2,26.1,29.98,West,275,6.0,6.0,59,0.00,CLR,,0.00,WeatherDisplay:10.37,2013-04-05 12:45:00,
2013-04-05 08:50:00,39.9,26.7,29.98,NW,306,7.0,7.0,59,0.00,CLR,,0.00,WeatherDisplay:10.37,2013-04-05 12:50:00,
2013-04-05 08:55:00,40.0,26.4,29.97,WNW,296,6.0,6.0,58,0.00,CLR,,0.00,WeatherDisplay:10.37,2013-04-05 12:55:00,
2013-04-05 09:00:00,40.4,26.8,29.98,West,266,6.0,6.0,58,0.00,CLR,,0.00,WeatherDisplay:10.37,2013-04-05 13:00:00,
2013-04-05 09:05:00,40.9,26.8,29.97,West,270,5.0,5.0,57,0.00,CLR,,0.00,WeatherDisplay:10.37,2013-04-05 13:05:00,
2013-04-05 09:10:00,41.2,25.3,29.98,NW,318,2.3,2.3,53,0.00,CLR,,0.00,WeatherDisplay:10.37,2013-04-05 13:10:00,
2013-04-05 09:15:00,41.6,25.3,29.98,NNW,336,2.0,2.0,52,0.00,CLR,,0.00,WeatherDisplay:10.37,2013-04-05 13:15:00,
2013-04-05 09:20:00,41.8,24.5,29.97,WNW,302,6.9,6.9,50,0.00,CLR,,0.00,WeatherDisplay:10.37,2013-04-05 13:20:00,
2013-04-05 09:25:00,42.0,24.7,29.97,WNW,303,6.0,6.0,50,0.00,CLR,,0.00,WeatherDisplay:10.37,2013-04-05 13:25:00,
2013-04-05 09:31:00,42.5,25.1,29.97,NW,310,1.2,1.2,50,0.00,CLR,,0.00,WeatherDisplay:10.37,2013-04-05 13:31:00,
2013-04-05 09:36:00,42.5,24.2,29.97,NNW,336,3.0,9.0,48,0.00,CLR,CLR,0.00,WeatherDisplay:10.37,2013-04-05 13:36:00,
2013-04-05 09:41:00,42.5,23.6,29.97,North,349,2.0,8.0,47,0.00,CLR,CLR,0.00,WeatherDisplay:10.37,2013-04-05 13:41:00,
2013-04-05 09:46:00,43.4,24.0,29.97,NNW,339,3.5,3.5,46,0.00,CLR,,0.00,WeatherDisplay:10.37,2013-04-05 13:46:00,
2013-04-05 09:51:00,43.4,24.0,29.97,NNW,340,1.0,3.0,46,0.00,CLR,CLR,0.00,WeatherDisplay:10.37,2013-04-05 13:51:00,
2013-04-05 09:56:00,44.1,25.1,29.97,NNW,344,3.0,3.0,47,0.00,CLR,,0.00,WeatherDisplay:10.37,2013-04-05 13:56:00,
2013-04-05 10:01:00,44.4,24.4,29.97,NNW,338,3.5,3.5,45,0.00,CLR,,0.00,WeatherDisplay:10.37,2013-04-05 14:01:00,
2013-04-05 10:06:00,44.5,25.0,29.98,NNW,344,2.3,2.3,46,0.00,CLR,,0.00,WeatherDisplay:10.37,2013-04-05 14:06:00,
2013-04-05 10:12:00,44.5,23.9,29.98,North,9,4.0,4.0,44,0.00,CLR,,0.00,WeatherDisplay:10.37,2013-04-05 14:12:00,
2013-04-05 10:17:00,44.9,24.8,29.98,WNW,302,2.0,2.0,45,0.00,CLR,,0.00,WeatherDisplay:10.37,2013-04-05 14:17:00,
2013-04-05 10:22:00,45.2,24.6,29.98,North,349,3.5,3.5,44,0.00,CLR,,0.00,WeatherDisplay:10.37,2013-04-05 14:22:00,
2013-04-05 10:27:00,45.5,24.3,29.98,NNE,24,7.0,7.0,43,0.00,CLR,,0.00,WeatherDisplay:10.37,2013-04-05 14:27:00,
2013-04-05 10:33:00,45.6,23.8,29.98,North,355,9.2,9.2,42,0.00,CLR,,0.00,WeatherDisplay:10.37,2013-04-05 14:33:00,
2013-04-05 10:38:00,46.0,25.3,29.98,North,9,4.0,4.0,44,0.00,CLR,,0.00,WeatherDisplay:10.37,2013-04-05 14:38:00,
2013-04-05 10:43:00,46.8,25.5,29.98,NNE,18,5.0,5.0,43,0.00,CLR,,0.00,WeatherDisplay:10.37,2013-04-05 14:43:00,
2013-04-05 10:48:00,46.7,25.4,29.98,NNW,336,2.3,2.3,43,0.00,CLR,,0.00,WeatherDisplay:10.37,2013-04-05 14:48:00,
2013-04-05 10:53:00,47.0,26.2,29.98,NNE,17,4.0,4.0,44,0.00,CLR,,0.00,WeatherDisplay:10.37,2013-04-05 14:53:00,
2013-04-05 10:58:00,47.6,26.2,29.98,NNW,330,3.0,3.0,43,0.00,CLR,,0.00,WeatherDisplay:10.37,2013-04-05 14:58:00,
2013-04-05 11:03:00,47.7,25.7,29.98,North,350,2.3,2.3,42,0.00,CLR,,0.00,WeatherDisplay:10.37,2013-04-05 15:03:00,
2013-04-05 11:08:00,48.2,27.3,29.98,NW,306,4.0,4.0,44,0.00,CLR,,0.00,WeatherDisplay:10.37,2013-04-05 15:08:00,
2013-04-05 11:13:00,48.5,27.0,29.98,North,355,8.1,8.1,43,0.00,CLR,,0.00,WeatherDisplay:10.37,2013-04-05 15:13:00,
2013-04-05 11:18:00,48.5,27.0,29.98,NNE,19,10.4,10.4,43,0.00,CLR,,0.00,WeatherDisplay:10.37,2013-04-05 15:18:00,
2013-04-05 11:23:00,48.6,27.6,29.98,North,355,5.8,5.8,44,0.00,CLR,,0.00,WeatherDisplay:10.37,2013-04-05 15:23:00,
2013-04-05 11:29:00,49.2,28.7,29.98,North,360,10.4,10.4,45,0.00,CLR,,0.00,WeatherDisplay:10.37,2013-04-05 15:29:00,
2013-04-05 11:34:00,49.0,28.6,29.98,NNW,333,3.5,3.5,45,0.00,CLR,,0.00,WeatherDisplay:10.37,2013-04-05 15:34:00,
2013-04-05 11:39:00,49.1,28.1,29.98,NNE,21,9.2,9.2,44,0.00,CLR,,0.00,WeatherDisplay:10.37,2013-04-05 15:39:00,
2013-04-05 11:45:00,49.9,29.9,29.98,North,355,2.3,2.3,46,0.00,CLR,,0.00,WeatherDisplay:10.37,2013-04-05 15:45:00,
2013-04-05 11:51:00,50.3,30.3,29.98,NNW,346,6.0,6.0,46,0.00,CLR,,0.00,WeatherDisplay:10.37,2013-04-05 15:51:00,
2013-04-05 11:56:00,50.3,29.7,29.98,North,355,7.0,7.0,45,0.00,CLR,,0.00,WeatherDisplay:10.37,2013-04-05 15:56:00,
2013-04-05 12:01:00,50.2,29.1,29.98,North,355,4.0,4.0,44,0.00,CLR,,0.00,WeatherDisplay:10.37,2013-04-05 16:01:00,
2013-04-05 12:06:00,50.5,30.5,29.98,NNE,32,5.0,5.0,46,0.00,CLR,,0.00,WeatherDisplay:10.37,2013-04-05 16:06:00,
2013-04-05 12:11:00,50.6,30.0,29.97,NNW,346,6.0,6.0,45,0.00,CLR,,0.00,WeatherDisplay:10.37,2013-04-05 16:11:00,
2013-04-05 12:16:00,50.7,29.0,29.97,North,11,14.0,14.0,43,0.00,CLR,,0.00,WeatherDisplay:10.37,2013-04-05 16:16:00,
2013-04-05 12:21:00,51.1,29.9,29.97,WNW,298,5.0,5.0,44,0.00,CLR,,0.00,WeatherDisplay:10.37,2013-04-05 16:21:00,
2013-04-05 12:26:00,51.3,29.5,29.97,NNW,341,4.6,4.6,43,0.00,CLR,,0.00,WeatherDisplay:10.37,2013-04-05 16:26:00,
2013-04-05 12:31:00,51.2,31.1,29.97,NE,51,5.0,5.0,46,0.00,CLR,,0.00,WeatherDisplay:10.37,2013-04-05 16:31:00,
2013-04-05 12:36:00,52.4,31.7,29.97,NNE,30,12.0,12.0,45,0.00,CLR,,0.00,WeatherDisplay:10.37,2013-04-05 16:36:00,
2013-04-05 12:42:00,51.7,31.0,29.97,WNW,291,4.6,4.6,45,0.00,CLR,,0.00,WeatherDisplay:10.37,2013-04-05 16:42:00,
2013-04-05 12:47:00,51.9,31.2,29.97,North,349,8.1,8.1,45,0.00,CLR,,0.00,WeatherDisplay:10.37,2013-04-05 16:47:00,
2013-04-05 12:52:00,51.3,29.5,29.97,North,350,8.1,8.1,43,0.00,CLR,,0.00,WeatherDisplay:10.37,2013-04-05 16:52:00,
2013-04-05 12:57:00,50.8,30.2,29.97,North,355,6.0,6.0,45,0.00,CLR,,0.00,WeatherDisplay:10.37,2013-04-05 16:57:00,
2013-04-05 13:02:00,51.4,30.2,29.97,NNE,15,11.5,11.5,44,0.00,CLR,,0.00,WeatherDisplay:10.37,2013-04-05 17:02:00,
2013-04-05 13:07:00,51.4,29.6,29.97,NNW,331,5.0,5.0,43,0.00,CLR,,0.00,WeatherDisplay:10.37,2013-04-05 17:07:00,
2013-04-05 13:12:00,53.1,31.7,29.97,NW,304,4.6,4.6,44,0.00,CLR,,0.00,WeatherDisplay:10.37,2013-04-05 17:12:00,
2013-04-05 13:17:00,52.7,30.8,29.96,NNE,17,6.0,6.0,43,0.00,CLR,,0.00,WeatherDisplay:10.37,2013-04-05 17:17:00,
2013-04-05 13:22:00,53.3,30.8,29.96,NNE,13,5.0,5.0,42,0.00,CLR,,0.00,WeatherDisplay:10.37,2013-04-05 17:22:00,
2013-04-05 13:27:00,52.1,30.8,29.96,NNW,340,6.0,6.0,44,0.00,CLR,,0.00,WeatherDisplay:10.37,2013-04-05 17:27:00,
2013-04-05 13:32:00,52.0,30.2,29.96,North,9,16.0,16.0,43,0.00,CLR,,0.00,WeatherDisplay:10.37,2013-04-05 17:32:00,
2013-04-05 13:37:00,51.8,30.6,29.96,NE,35,8.1,8.1,44,0.00,CLR,,0.00,WeatherDisplay:10.37,2013-04-05 17:37:00,
2013-04-05 13:42:00,52.9,31.0,29.95,NNW,345,12.0,12.0,43,0.00,CLR,,0.00,WeatherDisplay:10.37,2013-04-05 17:42:00,
2013-04-05 13:47:00,53.0,30.5,29.95,North,5,15.0,15.0,42,0.00,CLR,,0.00,WeatherDisplay:10.37,2013-04-05 17:47:00,
2013-04-05 13:52:00,52.3,30.4,29.96,North,5,9.2,9.2,43,0.00,CLR,,0.00,WeatherDisplay:10.37,2013-04-05 17:52:00,
2013-04-05 13:57:00,52.3,31.0,29.96,North,360,9.2,9.2,44,0.00,CLR,,0.00,WeatherDisplay:10.37,2013-04-05 17:57:00,
2013-04-05 14:02:00,52.9,31.0,29.95,NNE,21,16.0,16.0,43,0.00,CLR,,0.00,WeatherDisplay:10.37,2013-04-05 18:02:00,
2013-04-05 14:07:00,52.0,29.6,29.96,NNE,23,10.4,10.4,42,0.00,CLR,,0.00,WeatherDisplay:10.37,2013-04-05 18:07:00,
2013-04-05 14:12:00,52.0,30.2,29.95,NNW,336,8.1,8.1,43,0.00,CLR,,0.00,WeatherDisplay:10.37,2013-04-05 18:12:00,
2013-04-05 14:17:00,52.0,29.6,29.96,North,360,13.0,13.0,42,0.00,CLR,,0.00,WeatherDisplay:10.37,2013-04-05 18:17:00,
2013-04-05 14:22:00,51.6,29.2,29.96,NNE,22,13.8,13.8,42,0.00,CLR,,0.00,WeatherDisplay:10.37,2013-04-05 18:22:00,
2013-04-05 14:27:00,52.6,30.1,29.95,North,350,13.0,13.0,42,0.00,CLR,,0.00,WeatherDisplay:10.37,2013-04-05 18:27:00,
2013-04-05 14:32:00,53.1,31.2,29.95,WNW,299,9.2,9.2,43,0.00,CLR,,0.00,WeatherDisplay:10.37,2013-04-05 18:32:00,
2013-04-05 14:38:00,53.3,30.2,29.95,NNE,13,17.0,17.0,41,0.00,CLR,,0.00,WeatherDisplay:10.37,2013-04-05 18:38:00,
2013-04-05 14:43:00,51.9,28.9,29.95,NE,41,19.6,19.6,41,0.00,CLR,,0.00,WeatherDisplay:10.37,2013-04-05 18:43:00,
2013-04-05 14:48:00,51.6,29.8,29.96,North,5,12.7,12.7,43,0.00,CLR,,0.00,WeatherDisplay:10.37,2013-04-05 18:48:00,
2013-04-05 14:53:00,51.9,29.5,29.95,NNE,24,15.0,15.0,42,0.00,CLR,,0.00,WeatherDisplay:10.37,2013-04-05 18:53:00,
2013-04-05 14:58:00,52.5,29.5,29.96,NNW,347,15.0,15.0,41,0.00,CLR,,0.00,WeatherDisplay:10.37,2013-04-05 18:58:00,
2013-04-05 15:03:00,52.9,29.2,29.96,NNW,329,8.1,8.1,40,0.00,CLR,,0.00,WeatherDisplay:10.37,2013-04-05 19:03:00,
2013-04-05 15:08:00,53.4,30.3,29.95,North,5,16.1,16.1,41,0.00,CLR,,0.00,WeatherDisplay:10.37,2013-04-05 19:08:00,
2013-04-05 15:13:00,52.7,29.6,29.96,NNW,331,11.5,11.5,41,0.00,CLR,,0.00,WeatherDisplay:10.37,2013-04-05 19:13:00,
2013-04-05 15:18:00,52.9,29.8,29.96,NNW,331,10.4,10.4,41,0.00,CLR,,0.00,WeatherDisplay:10.37,2013-04-05 19:18:00,
2013-04-05 15:23:00,52.5,28.8,29.96,NE,34,16.0,16.0,40,0.00,CLR,,0.00,WeatherDisplay:10.37,2013-04-05 19:23:00,
2013-04-05 15:28:00,52.9,29.8,29.95,NNW,338,13.0,13.0,41,0.00,CLR,,0.00,WeatherDisplay:10.37,2013-04-05 19:28:00,
2013-04-05 15:33:00,52.3,29.3,29.96,North,360,11.5,11.5,41,0.00,CLR,,0.00,WeatherDisplay:10.37,2013-04-05 19:33:00,
2013-04-05 15:38:00,52.8,29.7,29.96,North,5,11.5,11.5,41,0.00,CLR,,0.00,WeatherDisplay:10.37,2013-04-05 19:38:00,
2013-04-05 15:43:00,52.8,29.1,29.95,North,10,12.7,12.7,40,0.00,CLR,,0.00,WeatherDisplay:10.37,2013-04-05 19:43:00,
2013-04-05 15:48:00,52.2,28.6,29.95,NNW,348,20.0,20.0,40,0.00,CLR,,0.00,WeatherDisplay:10.37,2013-04-05 19:48:00,
2013-04-05 15:53:00,52.2,28.6,29.95,North,360,16.1,16.1,40,0.00,CLR,,0.00,WeatherDisplay:10.37,2013-04-05 19:53:00,
2013-04-05 15:58:00,52.3,28.7,29.95,NW,314,15.0,15.0,40,0.00,CLR,,0.00,WeatherDisplay:10.37,2013-04-05 19:58:00,
2013-04-05 16:03:00,52.9,28.0,29.95,North,355,11.5,11.5,38,0.00,CLR,,0.00,WeatherDisplay:10.37,2013-04-05 20:03:00,
2013-04-05 16:08:00,53.0,29.3,29.95,NNW,341,11.5,11.5,40,0.00,CLR,,0.00,WeatherDisplay:10.37,2013-04-05 20:08:00,
2013-04-05 16:13:00,52.9,27.3,29.95,NNW,346,12.0,12.0,37,0.00,CLR,,0.00,WeatherDisplay:10.37,2013-04-05 20:13:00,
2013-04-05 16:18:00,52.6,28.3,29.96,NNE,22,7.0,7.0,39,0.00,CLR,,0.00,WeatherDisplay:10.37,2013-04-05 20:18:00,
2013-04-05 16:23:00,52.1,27.2,29.95,North,11,17.3,17.3,38,0.00,CLR,,0.00,WeatherDisplay:10.37,2013-04-05 20:23:00,
2013-04-05 16:28:00,52.2,28.0,29.95,North,360,9.0,9.0,39,0.00,CLR,,0.00,WeatherDisplay:10.37,2013-04-05 20:28:00,
2013-04-05 16:33:00,52.3,27.4,29.96,North,5,10.4,10.4,38,0.00,CLR,,0.00,WeatherDisplay:10.37,2013-04-05 20:33:00,
2013-04-05 16:38:00,52.5,27.6,29.96,NNW,327,16.1,16.1,38,0.00,CLR,,0.00,WeatherDisplay:10.37,2013-04-05 20:38:00,
2013-04-05 16:43:00,52.7,27.1,29.96,NNE,18,6.0,6.0,37,0.00,CLR,,0.00,WeatherDisplay:10.37,2013-04-05 20:43:00,
2013-04-05 16:48:00,52.7,28.4,29.96,NNE,33,11.5,11.5,39,0.00,CLR,,0.00,WeatherDisplay:10.37,2013-04-05 20:48:00,
2013-04-05 16:53:00,52.8,27.2,29.96,NNE,28,12.7,12.7,37,0.00,CLR,,0.00,WeatherDisplay:10.37,2013-04-05 20:53:00,
2013-04-05 16:58:00,52.3,26.1,29.96,North,5,8.1,8.1,36,0.00,CLR,,0.00,WeatherDisplay:10.37,2013-04-05 20:58:00,
2013-04-05 17:03:00,52.1,25.9,29.97,NNW,338,15.0,15.0,36,0.00,CLR,,0.00,WeatherDisplay:10.37,2013-04-05 21:03:00,
2013-04-05 17:08:00,52.0,27.8,29.97,NNW,346,7.0,7.0,39,0.00,CLR,,0.00,WeatherDisplay:10.37,2013-04-05 21:08:00,
2013-04-05 17:13:00,51.9,26.4,29.97,North,350,12.0,12.0,37,0.00,CLR,,0.00,WeatherDisplay:10.37,2013-04-05 21:13:00,
2013-04-05 17:18:00,51.7,25.6,29.97,NNW,344,18.4,18.4,36,0.00,CLR,,0.00,WeatherDisplay:10.37,2013-04-05 21:18:00,
2013-04-05 17:23:00,51.5,26.1,29.97,North,9,12.0,12.0,37,0.00,CLR,,0.00,WeatherDisplay:10.37,2013-04-05 21:23:00,
2013-04-05 17:28:00,51.5,26.1,29.97,NNE,25,7.0,7.0,37,0.00,CLR,,0.00,WeatherDisplay:10.37,2013-04-05 21:28:00,
2013-04-05 17:33:00,51.4,26.0,29.97,NNE,16,11.5,11.5,37,0.00,CLR,,0.00,WeatherDisplay:10.37,2013-04-05 21:33:00,
2013-04-05 17:38:00,51.3,25.9,29.97,NNE,16,15.0,15.0,37,0.00,CLR,,0.00,WeatherDisplay:10.37,2013-04-05 21:38:00,
2013-04-05 17:43:00,51.1,25.7,29.97,North,9,16.0,16.0,37,0.00,CLR,,0.00,WeatherDisplay:10.37,2013-04-05 21:43:00,
2013-04-05 17:48:00,50.8,25.4,29.97,NNE,28,18.0,18.0,37,0.00,CLR,,0.00,WeatherDisplay:10.37,2013-04-05 21:48:00,
2013-04-05 17:53:00,51.0,26.3,29.98,NNE,33,9.0,9.0,38,0.00,CLR,,0.00,WeatherDisplay:10.37,2013-04-05 21:53:00,
2013-04-05 17:58:00,50.9,26.8,29.98,North,355,12.0,12.0,39,0.00,CLR,,0.00,WeatherDisplay:10.37,2013-04-05 21:58:00,
2013-04-05 18:04:00,50.5,25.8,29.98,NNE,29,15.0,15.0,38,0.00,CLR,,0.00,WeatherDisplay:10.37,2013-04-05 22:04:00,
2013-04-05 18:09:00,50.3,25.6,29.98,NNW,342,11.5,11.5,38,0.00,CLR,,0.00,WeatherDisplay:10.37,2013-04-05 22:09:00,
2013-04-05 18:14:00,50.0,26.0,29.99,NNE,23,16.1,16.1,39,0.00,CLR,,0.00,WeatherDisplay:10.37,2013-04-05 22:14:00,
2013-04-05 18:19:00,49.6,25.6,29.99,NNE,19,13.0,13.0,39,0.00,CLR,,0.00,WeatherDisplay:10.37,2013-04-05 22:19:00,
2013-04-05 18:24:00,49.3,25.4,29.99,NNE,13,16.0,16.0,39,0.00,CLR,,0.00,WeatherDisplay:10.37,2013-04-05 22:24:00,
2013-04-05 18:29:00,49.2,25.3,30.00,NNE,30,12.0,12.0,39,0.00,CLR,,0.00,WeatherDisplay:10.37,2013-04-05 22:29:00,
2013-04-05 18:34:00,49.2,25.3,30.00,NNE,13,10.4,10.4,39,0.00,CLR,,0.00,WeatherDisplay:10.37,2013-04-05 22:34:00,
2013-04-05 18:39:00,49.0,24.5,30.00,North,355,10.4,10.4,38,0.00,CLR,,0.00,WeatherDisplay:10.37,2013-04-05 22:39:00,
2013-04-05 18:44:00,48.6,24.7,30.00,NNE,19,12.0,12.0,39,0.00,CLR,,0.00,WeatherDisplay:10.37,2013-04-05 22:44:00,
2013-04-05 18:49:00,48.3,25.1,30.01,North,5,10.0,10.0,40,0.00,CLR,,0.00,WeatherDisplay:10.37,2013-04-05 22:49:00,
2013-04-05 18:54:00,48.0,24.2,30.01,NNE,30,18.4,18.4,39,0.00,CLR,,0.00,WeatherDisplay:10.37,2013-04-05 22:54:00,
2013-04-05 18:59:00,47.6,24.4,30.01,North,355,12.0,12.0,40,0.00,CLR,,0.00,WeatherDisplay:10.37,2013-04-05 22:59:00,
2013-04-05 19:04:00,47.3,24.2,30.02,NNE,18,12.7,12.7,40,0.00,CLR,,0.00,WeatherDisplay:10.37,2013-04-05 23:04:00,
2013-04-05 19:09:00,47.0,23.9,30.02,NNE,19,16.1,16.1,40,0.00,CLR,,0.00,WeatherDisplay:10.37,2013-04-05 23:09:00,
2013-04-05 19:15:00,46.8,24.3,30.02,North,9,14.0,14.0,41,0.00,CLR,,0.00,WeatherDisplay:10.37,2013-04-05 23:15:00,
2013-04-05 19:20:00,46.4,23.4,30.02,NE,34,13.0,13.0,40,0.00,CLR,,0.00,WeatherDisplay:10.37,2013-04-05 23:20:00,
2013-04-05 19:25:00,46.0,23.6,30.03,NNE,19,11.5,11.5,41,0.00,CLR,,0.00,WeatherDisplay:10.37,2013-04-05 23:25:00,
2013-04-05 19:30:00,45.7,23.3,30.03,North,5,9.2,9.2,41,0.00,CLR,,0.00,WeatherDisplay:10.37,2013-04-05 23:30:00,
2013-04-05 19:35:00,45.4,23.6,30.03,NNE,18,11.5,11.5,42,0.00,CLR,,0.00,WeatherDisplay:10.37,2013-04-05 23:35:00,
2013-04-05 19:40:00,45.0,23.3,30.04,NE,39,11.5,11.5,42,0.00,CLR,,0.00,WeatherDisplay:10.37,2013-04-05 23:40:00,
2013-04-05 19:45:00,44.7,23.0,30.04,NNE,17,11.5,11.5,42,0.00,CLR,,0.00,WeatherDisplay:10.37,2013-04-05 23:45:00,
2013-04-05 19:50:00,44.3,23.2,30.04,NNE,16,12.0,12.0,43,0.00,CLR,,0.00,WeatherDisplay:10.37,2013-04-05 23:50:00,
2013-04-05 19:55:00,44.0,22.9,30.04,NNE,29,17.3,17.3,43,0.00,CLR,,0.00,WeatherDisplay:10.37,2013-04-05 23:55:00,
2013-04-05 20:00:00,43.8,22.7,30.05,NNE,26,11.5,11.5,43,0.00,CLR,,0.00,WeatherDisplay:10.37,2013-04-06 00:00:00,
2013-04-05 20:05:00,43.4,22.9,30.05,NNE,30,11.5,11.5,44,0.00,CLR,,0.00,WeatherDisplay:10.37,2013-04-06 00:05:00,
2013-04-05 20:10:00,43.2,22.7,30.05,NNE,15,16.1,16.1,44,0.00,CLR,,0.00,WeatherDisplay:10.37,2013-04-06 00:10:00,
2013-04-05 20:15:00,42.9,22.5,30.06,NNE,24,12.0,12.0,44,0.00,CLR,,0.00,WeatherDisplay:10.37,2013-04-06 00:15:00,
2013-04-05 20:20:00,42.6,22.2,30.06,NNW,340,10.4,10.4,44,0.00,CLR,,0.00,WeatherDisplay:10.37,2013-04-06 00:20:00,
2013-04-05 20:25:00,42.3,21.9,30.07,NNE,22,12.0,12.0,44,0.00,CLR,,0.00,WeatherDisplay:10.37,2013-04-06 00:25:00,
2013-04-05 20:30:00,42.0,21.6,30.07,NNE,18,12.0,12.0,44,0.00,CLR,,0.00,WeatherDisplay:10.37,2013-04-06 00:30:00,
2013-04-05 20:35:00,41.8,21.5,30.07,NNE,31,10.0,10.0,44,0.00,CLR,,0.00,WeatherDisplay:10.37,2013-04-06 00:35:00,
2013-04-05 20:40:00,41.5,21.7,30.08,NNE,22,12.0,12.0,45,0.00,CLR,,0.00,WeatherDisplay:10.37,2013-04-06 00:40:00,
2013-04-05 20:45:00,41.2,20.9,30.08,North,11,12.0,12.0,44,0.00,CLR,,0.00,WeatherDisplay:10.37,2013-04-06 00:45:00,
2013-04-05 20:50:00,41.0,21.3,30.09,NNE,18,11.0,11.0,45,0.00,CLR,,0.00,WeatherDisplay:10.37,2013-04-06 00:50:00,
2013-04-05 20:55:00,40.7,21.0,30.09,NNE,18,11.5,11.5,45,0.00,CLR,,0.00,WeatherDisplay:10.37,2013-04-06 00:55:00,
2013-04-05 21:00:00,40.5,20.8,30.09,NNE,17,10.4,10.4,45,0.00,CLR,,0.00,WeatherDisplay:10.37,2013-04-06 01:00:00,
2013-04-05 21:05:00,40.2,20.5,30.10,NE,43,11.5,11.5,45,0.00,CLR,,0.00,WeatherDisplay:10.37,2013-04-06 01:05:00,
2013-04-05 21:10:00,40.0,20.3,30.10,NNE,24,8.1,8.1,45,0.00,CLR,,0.00,WeatherDisplay:10.37,2013-04-06 01:10:00,
2013-04-05 21:15:00,39.8,20.7,30.11,NNE,17,9.2,9.2,46,0.00,CLR,,0.00,WeatherDisplay:10.37,2013-04-06 01:15:00,
2013-04-05 21:20:00,39.5,20.4,30.11,NNE,29,11.5,11.5,46,0.00,CLR,,0.00,WeatherDisplay:10.37,2013-04-06 01:20:00,
2013-04-05 21:25:00,39.3,20.2,30.11,NNE,32,18.4,18.4,46,0.00,CLR,,0.00,WeatherDisplay:10.37,2013-04-06 01:25:00,
2013-04-05 21:31:00,39.2,20.1,30.12,NNE,24,9.2,9.2,46,0.00,CLR,,0.00,WeatherDisplay:10.37,2013-04-06 01:31:00,
2013-04-05 21:36:00,39.0,19.9,30.12,NNE,32,11.5,11.5,46,0.00,CLR,,0.00,WeatherDisplay:10.37,2013-04-06 01:36:00,
2013-04-05 21:41:00,38.7,19.7,30.12,NNE,15,11.0,11.0,46,0.00,CLR,,0.00,WeatherDisplay:10.37,2013-04-06 01:41:00,
2013-04-05 21:46:00,38.6,20.1,30.12,NNE,21,9.0,15.0,47,0.00,CLR,CLR,0.00,WeatherDisplay:10.37,2013-04-06 01:46:00,
2013-04-05 21:52:00,38.4,19.9,30.13,NNE,15,12.0,12.0,47,0.00,CLR,,0.00,WeatherDisplay:10.37,2013-04-06 01:52:00,
2013-04-05 21:57:00,38.2,19.7,30.13,NNE,29,10.4,10.4,47,0.00,CLR,,0.00,WeatherDisplay:10.37,2013-04-06 01:57:00,
2013-04-05 22:02:00,38.0,20.0,30.13,NNE,17,9.0,9.0,48,0.00,CLR,,0.00,WeatherDisplay:10.37,2013-04-06 02:02:00,
2013-04-05 22:07:00,37.7,19.8,30.14,NNE,12,10.4,10.4,48,0.00,CLR,,0.00,WeatherDisplay:10.37,2013-04-06 02:07:00,
2013-04-05 22:12:00,37.5,20.1,30.14,North,10,11.0,11.0,49,0.00,CLR,,0.00,WeatherDisplay:10.37,2013-04-06 02:12:00,
2013-04-05 22:17:00,37.4,20.0,30.14,NNE,33,9.2,9.2,49,0.00,CLR,,0.00,WeatherDisplay:10.37,2013-04-06 02:17:00,
2013-04-05 22:22:00,37.2,19.8,30.14,NNE,26,8.1,8.1,49,0.00,CLR,,0.00,WeatherDisplay:10.37,2013-04-06 02:22:00,
2013-04-05 22:27:00,36.9,20.0,30.14,NE,34,11.5,11.5,50,0.00,CLR,,0.00,WeatherDisplay:10.37,2013-04-06 02:27:00,
2013-04-05 22:32:00,36.8,19.9,30.14,North,11,11.5,11.5,50,0.00,CLR,,0.00,WeatherDisplay:10.37,2013-04-06 02:32:00,
2013-04-05 22:37:00,36.7,19.8,30.14,NNE,32,11.5,11.5,50,0.00,CLR,,0.00,WeatherDisplay:10.37,2013-04-06 02:37:00,
2013-04-05 22:42:00,36.6,19.7,30.15,NNE,23,13.8,13.8,50,0.00,CLR,,0.00,WeatherDisplay:10.37,2013-04-06 02:42:00,
2013-04-05 22:47:00,36.3,19.9,30.15,NNE,25,11.0,11.0,51,0.00,CLR,,0.00,WeatherDisplay:10.37,2013-04-06 02:47:00,
2013-04-05 22:52:00,36.1,19.7,30.15,NNE,24,8.1,8.1,51,0.00,CLR,,0.00,WeatherDisplay:10.37,2013-04-06 02:52:00,
2013-04-05 22:57:00,35.8,19.9,30.15,NNE,15,8.1,8.1,52,0.00,CLR,,0.00,WeatherDisplay:10.37,2013-04-06 02:57:00,
2013-04-05 23:02:00,35.5,19.6,30.15,NNE,30,6.0,6.0,52,0.00,CLR,,0.00,WeatherDisplay:10.37,2013-04-06 03:02:00,
2013-04-05 23:07:00,35.3,19.9,30.15,NNE,27,5.0,5.0,53,0.00,CLR,,0.00,WeatherDisplay:10.37,2013-04-06 03:07:00,
2013-04-05 23:12:00,35.0,19.6,30.15,NNE,30,5.0,5.0,53,0.00,CLR,,0.00,WeatherDisplay:10.37,2013-04-06 03:12:00,
2013-04-05 23:17:00,35.0,19.6,30.15,NNE,25,10.4,10.4,53,0.00,CLR,,0.00,WeatherDisplay:10.37,2013-04-06 03:17:00,
2013-04-05 23:22:00,34.9,19.9,30.16,NNE,23,9.2,9.2,54,0.00,CLR,,0.00,WeatherDisplay:10.37,2013-04-06 03:22:00,
2013-04-05 23:27:00,34.8,19.8,30.15,NNE,22,9.0,9.0,54,0.00,CLR,,0.00,WeatherDisplay:10.37,2013-04-06 03:27:00,
2013-04-05 23:32:00,34.7,19.7,30.16,NNE,26,6.0,6.0,54,0.00,CLR,,0.00,WeatherDisplay:10.37,2013-04-06 03:32:00,
2013-04-05 23:37:00,34.4,19.5,30.16,NNE,13,8.1,8.1,54,0.00,CLR,,0.00,WeatherDisplay:10.37,2013-04-06 03:37:00,
2013-04-05 23:42:00,34.4,19.9,30.16,NNE,20,7.0,7.0,55,0.00,CLR,,0.00,WeatherDisplay:10.37,2013-04-06 03:42:00,
2013-04-05 23:48:00,34.3,19.8,30.16,NNE,17,8.0,8.0,55,0.00,CLR,,0.00,WeatherDisplay:10.37,2013-04-06 03:48:00,
2013-04-05 23:53:00,34.2,19.7,30.16,NNE,20,6.0,6.0,55,0.00,CLR,,0.00,WeatherDisplay:10.37,2013-04-06 03:53:00,
2013-04-05 23:58:00,34.1,19.6,30.17,NNE,14,7.0,7.0,55,0.00,CLR,,0.00,WeatherDisplay:10.37,2013-04-06 03:58:00,